TimeEDT,TemperatureF,Dew PointF,Humidity,Sea Level PressureIn,VisibilityMPH,Wind Direction,Wind SpeedMPH,Gust SpeedMPH,PrecipitationIn,Events,Conditions,WindDirDegrees,DateUTC
12:16 AM,38.7,27.9,65,30.18,10.0,NNE,23.0,28.8,N/A,,Overcast,20,2012-10-30 04:16:00
12:36 AM,38.7,28.0,66,30.18,10.0,NNE,19.6,28.8,N/A,,Overcast,20,2012-10-30 04:36:00
12:56 AM,38.7,28.2,66,30.17,10.0,NNE,20.7,29.9,N/A,,Overcast,20,2012-10-30 04:56:00
1:16 AM,38.7,28.2,66,30.16,10.0,NNE,21.9,33.4,N/A,,Overcast,20,2012-10-30 05:16:00
1:36 AM,38.3,27.5,65,30.15,10.0,NNE,21.9,32.2,N/A,,Mostly Cloudy,20,2012-10-30 05:36:00
1:56 AM,38.3,27.1,64,30.15,10.0,NNE,21.9,31.1,N/A,,Mostly Cloudy,30,2012-10-30 05:56:00
2:16 AM,37.8,26.4,64,30.14,10.0,NNE,20.7,31.1,N/A,,Mostly Cloudy,20,2012-10-30 06:16:00
2:35 AM,37.8,25.7,62,30.14,10.0,NNE,23.0,33.4,N/A,,Mostly Cloudy,20,2012-10-30 06:35:00
2:56 AM,37.8,25.0,60,30.13,10.0,NNE,18.4,32.2,N/A,,Mostly Cloudy,20,2012-10-30 06:56:00
3:16 AM,37.4,22.6,55,30.12,10.0,North,24.2,32.2,N/A,,Scattered Clouds,10,2012-10-30 07:16:00
3:35 AM,37.0,19.9,50,30.12,10.0,North,19.6,32.2,N/A,,Clear,10,2012-10-30 07:35:00
3:56 AM,36.7,19.0,49,30.11,10.0,NNE,23.0,32.2,N/A,,Clear,20,2012-10-30 07:56:00
4:16 AM,36.5,23.0,58,30.11,10.0,NNE,24.2,28.8,N/A,,Scattered Clouds,20,2012-10-30 08:16:00
4:35 AM,36.5,25.3,64,30.10,10.0,NNE,26.5,33.4,N/A,,Scattered Clouds,20,2012-10-30 08:35:00
4:56 AM,36.1,26.2,67,30.09,10.0,NNE,23.0,32.2,N/A,,Scattered Clouds,20,2012-10-30 08:56:00
5:16 AM,36.0,27.3,71,30.09,10.0,North,27.6,34.5,N/A,,Mostly Cloudy,10,2012-10-30 09:16:00
5:35 AM,35.6,27.0,71,30.09,10.0,North,19.6,34.5,N/A,,Mostly Cloudy,10,2012-10-30 09:35:00
5:56 AM,35.6,26.6,70,30.09,10.0,North,26.5,32.2,N/A,,Scattered Clouds,10,2012-10-30 09:56:00
6:50 AM,35.6,24.8,65,30.08,10.0,North,26.5,35.7,N/A,,Scattered Clouds,10,2012-10-30 10:50:00
7:50 AM,35.6,23.0,60,30.06,10.0,North,25.3,38.0,N/A,,Scattered Clouds,10,2012-10-30 11:50:00
8:50 AM,33.8,23.0,65,30.05,10.0,North,28.8,38.0,N/A,,Overcast,10,2012-10-30 12:50:00
9:55 AM,33.8,24.8,70,30.04,10.0,North,29.9,38.0,N/A,,Mostly Cloudy,10,2012-10-30 13:55:00
10:50 AM,33.8,23.0,65,30.34,10.0,North,24.2,40.3,N/A,,Overcast,10,2012-10-30 14:50:00
11:50 AM,35.6,23.0,60,30.02,10.0,North,26.5,40.3,N/A,,Mostly Cloudy,10,2012-10-30 15:50:00
12:50 PM,35.6,24.8,65,30.00,10.0,North,28.8,35.7,N/A,,Overcast,10,2012-10-30 16:50:00
1:50 PM,35.6,24.8,65,29.98,10.0,North,31.1,38.0,N/A,,Overcast,360,2012-10-30 17:50:00
2:48 PM,35.6,24.8,65,29.96,10.0,North,24.2,35.7,N/A,,Overcast,360,2012-10-30 18:48:00
3:50 PM,33.8,26.6,75,29.94,10.0,North,25.3,38.0,N/A,,Overcast,360,2012-10-30 19:50:00
4:50 PM,35.6,24.8,65,29.94,10.0,North,28.8,40.3,N/A,,Overcast,360,2012-10-30 20:50:00
5:30 PM,33.8,26.6,75,29.93,1.2,North,23.0,41.4,N/A,Snow,Light Snow,360,2012-10-30 21:30:00
5:55 PM,33.8,26.6,75,29.93,1.2,North,24.2,35.7,N/A,Snow,Light Snow,360,2012-10-30 21:55:00
6:50 PM,33.8,26.6,75,29.92,2.5,North,25.3,33.4,N/A,Snow,Light Snow,10,2012-10-30 22:50:00
7:50 PM,32.0,28.4,87,29.93,1.8,North,27.6,33.4,N/A,Snow,Light Snow,360,2012-10-30 23:50:00
8:50 PM,32.0,28.4,87,29.92,1.5,North,25.3,36.8,N/A,Snow,Light Snow,10,2012-10-31 00:50:00
9:50 PM,32.0,28.4,87,29.89,1.5,North,25.3,34.5,N/A,Snow,Light Snow,10,2012-10-31 01:50:00
10:16 PM,32.4,29.5,89,29.88,1.5,North,24.2,35.7,N/A,Snow,Light Snow,360,2012-10-31 02:16:00
10:36 PM,32.0,30.2,93,29.87,1.8,North,25.3,38.0,N/A,Snow,Light Snow,360,2012-10-31 02:36:00
10:56 PM,32.4,29.5,89,29.87,1.5,North,25.3,31.1,N/A,Snow,Light Snow,360,2012-10-31 02:56:00
11:16 PM,32.0,30.2,93,29.87,1.5,North,19.6,27.6,N/A,Snow,Light Snow,360,2012-10-31 03:16:00
11:36 PM,32.4,29.3,88,29.86,1.5,North,23.0,32.2,N/A,Snow,Light Snow,360,2012-10-31 03:36:00
11:56 PM,32.0,30.2,93,29.86,1.5,North,19.6,32.2,N/A,Snow,Light Snow,360,2012-10-31 03:56:00